Regional Weather Roundup
Issued by NWS State College, PA

Home | Current Version | Previous Version | Text Only | Print | Product List | Glossary On
Versions: 1 2 3 4 5 6 7 8 9 10 11 12 13 14 15 16 17 18 19 20 21 22 23 24 25 26 27 28 29 30 31 32 33 34 35 36 37 38 39 40 41 42 43 44 45 46 47 48 49 50
000
ASUS41 KCTP 040110
RWRCTP

REGIONAL WEATHER ROUNDUP
NATIONAL WEATHER SERVICE STATE COLLEGE PA
900 PM EDT FRI JUL 03 2015

Note: "fair" indicates few or no clouds below 12,000 feet with no
significant weather and/or obstructions to visibility.

* = STATION THAT DOES NOT REPORT PRECIPITATION /E.G. RAIN...SNOW...ETC/
    THUNDER OR FOG.

PAZ002>004-007>009-013>016-020>023-029>032-040200-
WESTERN PENNSYLVANIA

CITY           SKY/WX    TMP DP  RH WIND       PRES   REMARKS
ERIE           MOCLDY    67  46  47 NE7       29.92S
MEADVILLE      CLOUDY    67  55  65 N7        29.92S
FRANKLIN*      CLOUDY    68  57  68 CALM      29.93R
NEW CASTLE     MOCLDY    71  68  90 CALM      29.91R
BEAVER COUNTY  RAIN      66  64  94 S3        29.91R
BUTLER*        CLOUDY    70  63  78 SW5       29.92R
PITTSBURGH INT LGT RAIN  68  66  93 S5        29.90R FOG
PITTSBURGH     RAIN      67  62  84 SE6       29.90S
INDIANA*       MOCLDY    70  63  78 S6G12     29.95S
LATROBE        NOT AVBL
WASHINGTON CO* NOT AVBL
$$

PAZ004>006-010>012-017>019-024>028-033>037-041-042-045-046-049>053-040200-
CENTRAL PENNSYLVANIA

CITY           SKY/WX    TMP DP  RH WIND       PRES   REMARKS
BRADFORD       PTCLDY    65  57  75 SE3       29.95F
DUBOIS         CLOUDY    71  57  61 SE7       29.93S
CLEARFIELD     CLOUDY    70  59  68 CALM      29.94S
JOHNSTOWN      LGT RAIN  64  61  90 SE8       29.96S FOG
ALTOONA        CLOUDY    68  61  78 S6        29.95F
STATE COLLEGE  CLEAR     70  61  73 CALM      29.95S
WILLIAMSPORT   MOCLDY    75  60  59 S9        29.91S
SELINSGROVE    MOCLDY    70  64  81 CALM      29.93F
FT INDIANTOWN  CLOUDY    72  64  74 CALM      29.94S
CAPITAL CITY   CLOUDY    73  62  68 E6        29.93S
HARRISBURG     CLOUDY    72  65  78 CALM      29.92F
YORK           CLOUDY    72  62  71 SE3       29.93F
$$

PAZ038>040-043-044-047-048-054-055-060>062-067>071-040200-
EASTERN PENNSYLVANIA

CITY           SKY/WX    TMP DP  RH WIND       PRES   REMARKS
SCRANTON       CLOUDY    73  59  61 S6        29.95S
MOUNT POCONO   CLOUDY    67  57  70 CALM      30.00F
ALLENTOWN      CLOUDY    73  61  65 S3        29.95S
QUAKERTOWN*    CLOUDY    72  64  78 CALM      29.96F
READING        CLOUDY    74  63  68 S5        29.93F
LANCASTER      CLOUDY    71  63  75 SE5       29.94F
COATESVILLE    CLOUDY    72  64  78 CALM      29.97S
POTTSTOWN      CLOUDY    75  60  59 S3        29.96F
BLUE BELL      CLOUDY    75  63  64 S6        29.95S
DOYLESTOWN     CLOUDY    71  61  70 CALM      29.95S
WILLOW GROVE   NOT AVBL
NORTH PHILA    CLOUDY    76  62  62 S6        29.96S
PHILADELPHIA   CLOUDY    76  62  62 S7        29.96R
$$


USA.gov is the U.S. government's official web portal to all federal, state and local government web resources and services.